Vertical_Velocity
-2 -3 -8 -4 14 1 19 -19 -42 -11 7 21 -11 -1 3 -3 -1 -5 -5 -2 1 3 1 1 -0 -1 2 0 1 -1 0 -2 -1 1 -2 -1 -0 -1
-6 -2 -4 2 0 -9 36 3 13 -9 -15 -6 -4 -3 11 2 2 -3 -2 -1 1 -2 6 0 -5 -3 1 -1 2 1 0 -0 -1 0 -2 -0 -0 -1
2 -5 -5 -2 10 13 41 22 13 -6 -8 7 7 6 2 -0 -3 -2 -3 -4 4 3 -0 1 1 -8 -1 -0 0 1 -2 1 -2 -1 2 0 -2 -2
0 -0 -5 2 1 1 2 28 15 10 -20 -17 -3 -2 -8 2 -1 1 2 0 0 5 2 1 5 -4 -4 -1 1 0 -0 -0 0 -1 2 -1 -2 1
0 -2 -1 0 -5 14 -10 18 5 12 10 -1 -9 -1 2 9 5 1 -2 -1 -2 5 4 -1 4 -1 0 -3 0 0 1 -1 2 1 0 0 -0 -1
-2 1 -2 -4 -8 -2 4 33 1 4 9 -3 3 1 -8 -7 8 0 8 7 -9 4 4 -0 1 -1 3 -2 -2 -1 1 -0 1 1 -1 -0 -0 -0
-6 -2 -6 4 -1 -2 8 6 17 2 6 0 6 4 2 1 -13 -17 3 -1 10 -7 3 0 1 7 1 4 2 1 -2 1 0 1 -1 1 -0 1
-2 -8 -0 -2 -2 5 4 9 57 22 -4 -4 -13 -11 -2 -12 -6 -4 1 3 -7 6 2 2 3 -2 -2 -2 0 -0 3 -1 -0 2 -1 -1 0 1
-4 -7 -2 -8 -0 -6 1 -12 -3 12 3 -16 -10 -23 -10 -22 -5 -6 -0 1 -13 -6 1 -2 -0 1 -2 -0 1 -1 0 -1 -0 2 1 0 -1 0
-1 -7 -2 -8 0 4 -1 2 -1 -1 3 -8 -9 -1 -11 -2 -13 -28 -22 34 24 3 -7 0 -4 -6 -0 0 0 2 0 -1 -2 1 2 1 -1 -1
3 -9 0 -4 -7 -1 -3 -3 4 24 6 2 -1 17 9 17 4 9 -1 -11 -5 -5 11 -2 -10 -0 2 0 -0 0 2 0 1 -0 1 -0 -2 1
10 10 1 -6 -1 -3 -7 3 -4 39 -6 15 10 13 5 3 6 -3 -6 -13 1 10 -7 -8 6 -6 4 -7 -0 3 2 4 0 0 -1 1 -1 -1
-2 -4 -2 -7 2 5 -6 -1 -2 75 3 1 4 5 8 10 4 2 3 -1 -3 -6 -6 4 -8 -1 2 -3 -3 -2 -1 2 2 1 0 2 -0 -2
-5 -3 -2 -7 -0 -2 -0 -9 3 23 5 6 12 6 -3 2 1 -10 4 0 7 16 16 3 -2 -11 -7 -2 -4 -1 -1 -1 1 3 1 1 2 -1
-3 -9 -1 2 -1 10 2 -12 18 31 6 7 -2 -4 -13 -12 4 19 18 8 9 2 7 -2 -2 10 1 -5 -1 -3 2 -6 1 1 4 1 -1 -3
15 -6 5 5 7 1 5 3 7 4 19 -4 -2 3 3 9 6 -2 2 -1 -1 -3 8 -0 -1 4 -5 2 5 3 1 -5 -2 -1 1 3 0 -2
7 21 -6 9 5 -3 -10 1 -3 6 23 0 1 -5 3 2 2 -2 -0 6 2 -3 -4 -1 1 1 4 10 2 -4 1 1 -1 -2 1 0 1 1
10 -6 -12 -2 16 1 -3 -8 -2 25 14 3 1 -1 -4 -3 -7 2 8 5 -8 -6 -1 -2 -6 1 6 2 -0 1 -4 2 1 1 2 0 0 0
7 -1 -9 -8 16 -7 -1 -11 -3 15 6 -0 -4 -2 -0 0 1 -6 8 5 -5 -1 2 1 -0 -0 1 -4 -0 -1 -1 -0 -2 -3 1 -1 -1 1
8 -3 -8 10 -11 14 -4 -10 12 7 6 -0 4 2 1 -6 0 2 3 -7 -4 1 -1 2 -3 -5 -13 -4 -5 -2 -2 -0 -1 -1 -1 2 3 6
6 -1 -4 1 -11 33 -3 -13 6 -1 2 -2 -0 1 0 -7 1 3 2 0 -1 -1 -4 -8 2 11 7 6 3 1 -1 1 1 -0 3 2 2 -0
-6 4 0 -2 -9 8 4 -17 11 3 -3 2 1 4 -2 3 -1 -7 -0 -2 -13 -3 15 10 -1 -1 1 1 0 2 -0 -0 2 2 4 11 -0 -16
-5 -1 3 -5 -2 10 7 4 0 -4 5 6 0 -1 2 -0 -3 3 2 5 8 4 -3 1 3 6 11 2 4 1 0 1 -1 -1 -2 1 2 3
Height
1445 1450 1452 1459 1464 1471 1477 1480 1482 1493 1500 1506 1514 1524 1531 1538 1545 1552 1558 1564 1569 1573 1577 1580 1582 1585 1587 1589 1591 1592 1594 1595 1596 1596 1596 1596 1595 1593
1439 1443 1447 1452 1458 1464 1466 1471 1476 1480 1494 1499 1508 1514 1521 1531 1539 1547 1553 1560 1566 1570 1573 1576 1580 1583 1585 1587 1589 1591 1592 1593 1594 1595 1594 1594 1593 1592
1432 1435 1440 1446 1450 1452 1455 1460 1466 1471 1484 1495 1505 1510 1517 1526 1534 1543 1549 1555 1561 1566 1569 1574 1576 1579 1582 1585 1587 1589 1590 1592 1592 1593 1593 1593 1592 1591
1423 1426 1431 1438 1440 1445 1449 1454 1459 1464 1470 1482 1494 1501 1513 1521 1528 1535 1543 1549 1556 1561 1565 1570 1573 1577 1580 1583 1585 1586 1588 1589 1590 1591 1591 1591 1591 1590
1412 1415 1422 1427 1431 1437 1443 1450 1452 1457 1463 1474 1481 1495 1507 1515 1523 1529 1538 1544 1551 1557 1561 1566 1570 1573 1577 1580 1582 1583 1585 1587 1588 1588 1588 1588 1588 1588
1402 1406 1411 1415 1421 1428 1434 1437 1444 1452 1453 1464 1475 1485 1495 1505 1514 1518 1530 1536 1543 1551 1556 1561 1565 1569 1573 1576 1578 1579 1581 1583 1584 1585 1585 1586 1586 1586
1391 1395 1398 1406 1411 1415 1422 1424 1431 1442 1448 1455 1465 1477 1485 1493 1502 1512 1521 1529 1535 1542 1548 1553 1559 1562 1566 1570 1573 1575 1576 1579 1581 1581 1582 1583 1583 1584
1382 1386 1388 1394 1400 1406 1411 1414 1423 1431 1435 1443 1453 1462 1472 1481 1495 1503 1511 1518 1527 1534 1541 1546 1551 1555 1559 1562 1567 1571 1573 1574 1576 1577 1578 1580 1580 1581
1372 1376 1379 1381 1388 1390 1398 1407 1411 1415 1420 1429 1436 1448 1460 1469 1482 1494 1502 1508 1513 1520 1532 1538 1544 1548 1553 1557 1563 1566 1569 1569 1571 1573 1574 1575 1577 1578
1362 1367 1370 1372 1376 1383 1391 1398 1402 1407 1413 1420 1430 1436 1448 1459 1469 1478 1490 1500 1509 1516 1525 1526 1534 1539 1545 1550 1556 1560 1563 1565 1566 1568 1569 1571 1573 1574
1351 1356 1360 1363 1367 1372 1376 1385 1392 1399 1406 1414 1423 1433 1443 1450 1461 1472 1483 1493 1499 1505 1511 1518 1526 1532 1537 1542 1548 1552 1557 1559 1561 1562 1564 1565 1568 1570
1340 1344 1349 1354 1359 1363 1368 1378 1381 1387 1393 1405 1416 1426 1435 1444 1454 1459 1466 1475 1487 1496 1499 1511 1516 1523 1528 1532 1538 1543 1548 1552 1555 1557 1558 1560 1562 1565
1328 1331 1336 1343 1349 1355 1358 1364 1372 1382 1383 1394 1406 1416 1425 1435 1444 1455 1460 1468 1472 1477 1484 1495 1503 1510 1520 1521 1527 1533 1538 1542 1546 1550 1553 1555 1556 1559
1315 1320 1326 1333 1337 1342 1346 1353 1362 1367 1372 1385 1393 1405 1413 1426 1435 1446 1453 1461 1469 1476 1480 1486 1491 1498 1508 1513 1516 1521 1527 1532 1539 1542 1545 1549 1551 1552
1305 1311 1318 1323 1326 1330 1333 1344 1354 1356 1361 1373 1381 1393 1403 1417 1430 1440 1446 1454 1464 1470 1477 1481 1488 1493 1499 1503 1506 1512 1518 1522 1528 1533 1538 1541 1543 1546
1296 1303 1306 1310 1315 1321 1323 1332 1341 1345 1351 1360 1371 1383 1397 1409 1417 1426 1433 1444 1454 1463 1470 1475 1484 1488 1493 1497 1502 1506 1511 1515 1518 1523 1530 1535 1537 1539
1288 1292 1296 1297 1300 1305 1308 1321 1331 1338 1343 1351 1360 1370 1386 1398 1409 1417 1426 1436 1443 1451 1459 1467 1475 1482 1488 1493 1494 1498 1505 1508 1512 1516 1521 1524 1529 1533
1279 1281 1286 1288 1291 1295 1298 1310 1321 1329 1334 1341 1350 1363 1376 1387 1399 1410 1419 1426 1435 1443 1451 1456 1464 1473 1480 1483 1487 1489 1496 1501 1506 1510 1514 1517 1521 1525
1266 1272 1277 1280 1285 1290 1291 1304 1318 1322 1325 1334 1344 1356 1367 1380 1391 1400 1409 1417 1428 1436 1443 1449 1455 1462 1469 1471 1476 1481 1487 1495 1499 1503 1507 1510 1514 1520
1256 1261 1267 1273 1281 1282 1289 1304 1312 1316 1319 1328 1339 1349 1359 1370 1381 1390 1399 1409 1419 1426 1435 1441 1446 1451 1458 1460 1467 1474 1480 1487 1491 1496 1500 1504 1509 1516
1251 1255 1259 1266 1271 1275 1283 1297 1303 1308 1315 1322 1334 1342 1351 1361 1372 1382 1392 1400 1408 1415 1422 1428 1435 1447 1455 1460 1465 1468 1474 1482 1486 1490 1494 1499 1502 1506
1244 1250 1257 1262 1267 1272 1281 1291 1298 1304 1311 1319 1328 1336 1346 1354 1364 1374 1383 1389 1398 1407 1414 1423 1431 1438 1445 1451 1456 1461 1467 1473 1479 1483 1489 1493 1494 1494
1241 1246 1250 1256 1264 1269 1278 1281 1291 1298 1306 1313 1320 1330 1339 1346 1356 1366 1376 1383 1391 1398 1404 1412 1422 1431 1438 1443 1450 1456 1461 1466 1470 1474 1477 1482 1487 1491